Weather History for Pope Field Airport, NC

Change the Weather History Date:

Tuesday, July 16, 2013

  Actual Average Record
Temperature  
Mean Temperature 82 °F -  
Max Temperature 93 °F 90 °F 104 °F (1983)
Min Temperature 73 °F 72 °F 62 °F (2001)
Cooling Degree Days 18    
Growing Degree Days 32 (Base 50)    
Moisture  
Dew Point 72 °F    
Average Humidity 70    
Maximum Humidity 94    
Minimum Humidity 48    
Precipitation  
Precipitation 0.00 in - - ()
Sea Level Pressure  
Sea Level Pressure 30.25 in    
Wind  
Wind Speed 3 mph (NW)    
Max Wind Speed 8 mph    
Max Gust Speed -    
Visibility 10 miles    
Events      
Averages and records for this station are not official NWS values.
T = Trace of Precipitation, MM = Missing Value Source: NWS Daily Summary

Daily Weather History Graph

Daily Weather History Graph

Search for Another Location

Airport:

Trip Planner

Search our weather history database for the weather conditions in past years. The results will help you decide how hot, cold, wet, or windy it might be!

Date:

Astronomy

Jul. 16, 2013 Rise Set
Actual Time 6:13 AM EDT 8:30 PM EDT
Civil Twilight 5:44 AM EDT 8:59 PM EDT
Nautical Twilight 5:09 AM EDT 9:34 PM EDT
Astronomical Twilight 4:30 AM EDT 10:13 PM EDT
Moon 2:15 PM EDT (7/16) 12:35 AM EDT (7/16)
Length of Visible Light 15h 14m
Length of Day
14h 16m
First Quarter, 56% of the Moon is Illuminated
Jul 16
First Quarter
Jul 22
Full
Jul 29
Last Quarter
Aug 6
New
Aug 14
First Quarter

Hourly Weather History & Observations

Time (EDT) Temp. Heat Index Dew Point Humidity Pressure Visibility Wind Dir Wind Speed Gust Speed Precip Events Conditions
12:58 AM 78.8 °F - 70.5 °F 76% 30.29 in 10.0 mi SW 5.8 mph - N/A   Clear
1:58 AM 78.4 °F - 70.3 °F 76% 30.27 in 10.0 mi SW 4.6 mph - N/A   Clear
2:58 AM 75.4 °F - 71.8 °F 89% 30.27 in 10.0 mi WSW 2.3 mph - N/A   Clear
3:58 AM 74.8 °F - 71.4 °F 89% 30.26 in 10.0 mi WNW 1.2 mph - N/A   Clear
4:58 AM 73.4 °F - 71.2 °F 93% 30.27 in 10.0 mi NNW 1.2 mph - N/A   Clear
5:58 AM 73.2 °F - 71.4 °F 94% 30.27 in 10.0 mi West 2.3 mph - N/A   Clear
6:58 AM 73.4 °F - 71.6 °F 94% 30.28 in 10.0 mi West 2.3 mph - N/A   Clear
7:58 AM 76.5 °F - 72.3 °F 87% 30.29 in 10.0 mi West 3.5 mph - N/A   Clear
8:58 AM 82.2 °F 88.0 °F 73.8 °F 75% 30.30 in 10.0 mi WNW 5.8 mph - N/A   Clear
9:58 AM 85.1 °F 92.2 °F 73.6 °F 68% 30.30 in 10.0 mi NW 6.9 mph - N/A   Clear
10:58 AM 87.3 °F 94.0 °F 72.3 °F 61% 30.28 in 10.0 mi Variable 2.3 mph - N/A   Partly Cloudy
11:58 AM 88.3 °F 94.1 °F 70.7 °F 56% 30.27 in 10.0 mi Variable 2.3 mph - N/A   Scattered Clouds
12:58 PM 89.4 °F 95.3 °F 70.5 °F 54% 30.25 in 10.0 mi Calm Calm - N/A   Partly Cloudy
1:58 PM 90.7 °F 97.4 °F 71.4 °F 53% 30.25 in 10.0 mi Variable 2.3 mph - N/A   Clear
2:58 PM 91.6 °F 97.7 °F 70.3 °F 50% 30.22 in 9.0 mi NE 8.1 mph - N/A   Clear
3:58 PM 92.3 °F 98.1 °F 70.0 °F 48% 30.22 in 10.0 mi Variable 1.2 mph - N/A   Clear
4:58 PM 91.6 °F 97.2 °F 69.8 °F 49% 30.20 in 10.0 mi ENE 6.9 mph - N/A   Partly Cloudy
5:58 PM 91.4 °F 97.8 °F 70.9 °F 51% 30.19 in 10.0 mi North 3.5 mph - N/A   Partly Cloudy
6:58 PM 90.5 °F 97.5 °F 72.0 °F 54% 30.19 in 10.0 mi NNE 2.3 mph - N/A   Clear
7:58 PM 88.9 °F 95.1 °F 71.6 °F 56% 30.19 in 10.0 mi North 3.5 mph - N/A   Clear
8:58 PM 85.8 °F 93.4 °F 73.9 °F 67% 30.20 in 8.0 mi North 2.3 mph - N/A   Clear
9:58 PM 80.2 °F 85.5 °F 75.4 °F 85% 30.22 in 10.0 mi ENE 2.3 mph - N/A   Clear
10:58 PM 82.0 °F 87.4 °F 72.9 °F 74% 30.22 in 10.0 mi Calm Calm - N/A   Clear
11:58 PM 78.6 °F - 74.7 °F 88% 30.22 in 10.0 mi Calm Calm - N/A   Clear